WC1Z Weather Reports


Display with metric or nautical units.
time (UTC)temp
F
wind
direction
speed
MPH
gust
MPH
rain 1hr
in
rain 24hr
in
rain mn
in
humidity
%
barometer
mb
20260506155200 78 178 4.0 4.0 0.00 0.00 0.00 85 1012.4
20260506154702 78 190 2.0 4.0 0.00 0.00 0.00 85 1012.2
20260506154201 78 211 1.0 2.0 0.00 0.00 0.00 85 1012.3
20260506153700 78 183 1.0 3.0 0.00 0.00 0.00 85 1012.3
20260506153201 78 224 3.0 5.0 0.00 0.00 0.00 84 1012.2
20260506152700 78 186 3.0 4.0 0.00 0.00 0.00 84 1012.1
20260506152200 78 210 1.0 4.0 0.00 0.00 0.00 85 1012.0
20260506151702 78 170 5.0 6.0 0.00 0.00 0.00 85 1012.0
20260506151200 78 227 2.0 3.0 0.00 0.00 0.00 85 1012.0
20260506150703 78 222 3.0 4.0 0.00 0.00 0.00 84 1012.0
20260506150203 78 178 2.0 4.0 0.00 0.00 0.00 85 1011.9
20260506145701 78 171 3.0 5.0 0.00 0.00 0.00 85 1011.9
20260506145200 77 179 3.0 4.0 0.00 0.00 0.00 85 1011.8
20260506144701 77 161 0.0 2.0 0.00 0.00 0.00 86 1011.8
20260506144201 77 167 6.0 8.0 0.00 0.00 0.00 85 1011.7
20260506143701 77 162 3.0 4.0 0.00 0.00 0.00 86 1011.7
20260506143200 77 193 1.0 2.0 0.00 0.00 0.00 87 1011.7
20260506142701 77 225 2.0 2.0 0.00 0.00 0.00 87 1011.7
20260506142204 77 199 3.0 5.0 0.00 0.00 0.00 87 1011.7
20260506141700 76 224 4.0 7.0 0.00 0.00 0.00 87 1011.7
20260506141203 76 178 5.0 6.0 0.00 0.00 0.00 87 1011.6
20260506140700 76 213 2.0 2.0 0.00 0.00 0.00 87 1011.5
20260506140201 76 170 4.0 5.0 0.00 0.00 0.00 87 1011.5
20260506135702 76 154 4.0 4.0 0.00 0.00 0.00 87 1011.5
20260506135201 76 173 2.0 3.0 0.00 0.00 0.00 88 1011.5
20260506134700 76 207 3.0 4.0 0.00 0.00 0.00 88 1011.6
20260506134202 76 251 1.0 2.0 0.00 0.00 0.00 88 1011.5
20260506133700 76 204 2.0 3.0 0.00 0.00 0.00 88 1011.6
20260506133200 76 176 0.0 0.0 0.00 0.00 0.00 88 1011.6
20260506132701 76 175 3.0 4.0 0.00 0.00 0.00 89 1011.5
20260506132203 75 175 2.0 4.0 0.00 0.00 0.00 89 1011.4
20260506131704 75 168 3.0 3.0 0.00 0.00 0.00 89 1011.5
20260506131200 75 179 0.0 2.0 0.00 0.00 0.00 89 1011.5
20260506130700 75 171 1.0 1.0 0.00 0.00 0.00 90 1011.4
20260506130201 75 153 4.0 4.0 0.00 0.00 0.00 89 1011.3
20260506125701 75 211 2.0 3.0 0.00 0.00 0.00 90 1011.4
20260506125201 75 152 2.0 2.0 0.00 0.00 0.00 90 1011.3
20260506124700 74 189 3.0 3.0 0.00 0.00 0.00 90 1011.2
20260506124201 74 170 2.0 2.0 0.00 0.00 0.00 90 1011.2
20260506123700 74 164 2.0 2.0 0.00 0.00 0.00 90 1011.2
20260506123200 74 174 2.0 3.0 0.00 0.00 0.00 90 1011.1
20260506122702 74 179 2.0 2.0 0.00 0.00 0.00 90 1011.0
20260506122200 74 176 2.0 3.0 0.00 0.00 0.00 91 1011.0
20260506121700 74 189 2.0 3.0 0.00 0.00 0.00 91 1010.9
20260506121202 74 151 3.0 4.0 0.00 0.00 0.00 91 1010.8
20260506120701 74 154 1.0 2.0 0.00 0.00 0.00 91 1010.7
20260506120202 74 157 3.0 4.0 0.00 0.00 0.00 91 1010.7
20260506115700 74 131 2.0 3.0 0.00 0.00 0.00 91 1010.6
20260506115203 74 164 2.0 3.0 0.00 0.00 0.00 91 1010.4
20260506114700 74 154 3.0 4.0 0.00 0.00 0.00 90 1010.4
20260506114201 74 141 1.0 2.0 0.00 0.00 0.00 90 1010.3
20260506113701 74 169 2.0 2.0 0.00 0.00 0.00 90 1010.3
20260506113204 74 139 2.0 4.0 0.00 0.00 0.00 90 1010.3
20260506112700 74 182 3.0 3.0 0.00 0.00 0.00 90 1010.2
20260506112201 74 124 2.0 2.0 0.00 0.00 0.00 90 1010.1
20260506111700 74 160 2.0 3.0 0.00 0.00 0.00 89 1010.1
20260506111200 74 167 3.0 5.0 0.00 0.00 0.00 89 1010.0
20260506110700 74 197 1.0 2.0 0.00 0.00 0.00 89 1010.1
20260506110200 74 186 2.0 4.0 0.00 0.00 0.00 89 1010.0
20260506105700 74 163 2.0 2.0 0.00 0.00 0.00 89 1010.1
20260506105200 74 200 3.0 4.0 0.00 0.00 0.00 89 1009.9
20260506104700 74 183 2.0 3.0 0.00 0.00 0.00 89 1009.9
20260506104201 74 207 3.0 4.0 0.00 0.00 0.00 89 1009.9
20260506103700 74 186 3.0 4.0 0.00 0.00 0.00 89 1009.9
20260506103201 74 195 2.0 3.0 0.00 0.00 0.00 89 1009.9
20260506102701 74 189 1.0 2.0 0.00 0.00 0.00 89 1009.9
20260506102200 75 173 2.0 4.0 0.00 0.00 0.00 89 1009.9
20260506101702 75 186 2.0 3.0 0.00 0.00 0.00 89 1009.8
20260506101201 75 163 3.0 5.0 0.00 0.00 0.00 89 1009.7
20260506100700 75 176 3.0 6.0 0.00 0.00 0.00 88 1009.7
20260506100201 75 174 2.0 4.0 0.00 0.00 0.00 88 1009.7
20260506095701 75 187 1.0 2.0 0.00 0.00 0.00 88 1009.7
20260506095201 75 175 4.0 7.0 0.00 0.00 0.00 88 1009.5
20260506094700 75 200 3.0 6.0 0.00 0.00 0.00 88 1009.7
20260506094200 75 188 3.0 6.0 0.00 0.00 0.00 88 1009.7
20260506093700 75 201 2.0 3.0 0.00 0.00 0.00 88 1009.7
20260506093200 75 175 2.0 4.0 0.00 0.00 0.00 88 1009.7
20260506092701 75 182 4.0 5.0 0.00 0.00 0.00 88 1009.7
20260506092201 75 168 3.0 5.0 0.00 0.00 0.00 89 1009.7
20260506091702 75 201 3.0 4.0 0.00 0.00 0.00 89 1009.6
20260506091203 75 241 1.0 2.0 0.00 0.00 0.00 89 1009.6
20260506090700 75 179 3.0 5.0 0.00 0.00 0.00 89 1009.6
20260506090200 75 154 1.0 4.0 0.00 0.00 0.00 89 1009.5
20260506085700 75 224 5.0 7.0 0.00 0.00 0.00 89 1009.5
20260506085200 75 194 2.0 3.0 0.00 0.00 0.00 89 1009.5
20260506084700 75 147 1.0 2.0 0.00 0.00 0.00 88 1009.5
20260506084200 75 168 3.0 4.0 0.00 0.00 0.00 88 1009.6
20260506083700 75 168 4.0 5.0 0.00 0.00 0.00 88 1009.5
20260506083202 75 172 4.0 5.0 0.00 0.00 0.00 88 1009.4
20260506082701 75 167 4.0 5.0 0.00 0.00 0.00 88 1009.5
20260506082202 75 278 0.0 2.0 0.00 0.00 0.00 88 1009.5
20260506081700 75 164 3.0 6.0 0.00 0.00 0.00 88 1009.5
20260506081200 75 172 4.0 6.0 0.00 0.00 0.00 88 1009.5
20260506080703 75 180 2.0 3.0 0.00 0.00 0.00 88 1009.6
20260506080200 75 167 2.0 4.0 0.00 0.00 0.00 88 1009.6
20260506073201 75 175 3.0 8.0 0.00 0.00 0.00 87 1009.6
20260506072700 75 161 8.0 9.0 0.00 0.00 0.00 87 1009.7
20260506072200 75 170 5.0 7.0 0.00 0.00 0.00 87 1009.8
20260506071701 76 166 2.0 3.0 0.00 0.00 0.00 87 1009.9
20260506071200 76 181 2.0 6.0 0.00 0.00 0.00 87 1010.0
20260506070700 76 169 4.0 5.0 0.00 0.00 0.00 87 1010.2
20260506070201 76 192 3.0 5.0 0.00 0.00 0.00 86 1010.3
20260506062201 76 177 4.0 9.0 0.00 0.00 0.00 86 1010.1
20260506061700 76 212 3.0 7.0 0.00 0.00 0.00 86 1010.0
20260506061200 76 220 3.0 4.0 0.00 0.00 0.00 86 1010.1
20260506060700 76 219 4.0 6.0 0.00 0.00 0.00 86 1010.2
20260506060200 76 216 7.0 9.0 0.00 0.00 0.00 86 1010.2
20260506051200 76 195 3.0 5.0 0.00 0.00 0.00 86 1009.5
20260506050700 76 168 6.0 10.0 0.00 0.00 0.00 86 1009.3
20260506050202 76 194 2.0 3.0 0.00 0.00 0.00 86 1009.3
20260506044701 76 166 5.0 8.0 0.00 0.00 0.00 86 1009.6
20260506044200 76 175 9.0 11.0 0.00 0.00 0.00 86 1009.6
20260506043700 76 155 3.0 6.0 0.00 0.00 0.00 86 1009.6
20260506043200 76 166 5.0 6.0 0.00 0.00 0.00 86 1009.7
20260506042700 76 185 5.0 8.0 0.00 0.00 0.00 86 1009.8
20260506042200 76 187 2.0 3.0 0.00 0.00 0.00 85 1009.9
20260506041700 77 196 2.0 3.0 0.00 0.00 0.00 85 1009.8
20260506041200 77 158 4.0 7.0 0.00 0.00 0.00 85 1009.7
20260506040702 77 162 4.0 7.0 0.00 0.00 0.00 85 1009.7
20260506040201 77 178 4.0 6.0 0.00 0.00 0.00 85 1009.7
20260506035701 77 228 5.0 9.0 0.00 0.00 0.00 85 1009.6
20260506035202 77 195 4.0 8.0 0.00 0.00 0.00 85 1009.7
20260506034700 77 211 5.0 6.0 0.00 0.00 0.00 85 1009.7
20260506034200 77 207 3.0 7.0 0.00 0.00 0.00 85 1009.8
20260506033700 77 210 2.0 3.0 0.00 0.00 0.00 85 1009.7
20260506033200 77 209 6.0 7.0 0.00 0.00 0.00 85 1009.6
20260506032700 77 192 2.0 4.0 0.00 0.00 0.00 85 1009.5
20260506032201 77 186 4.0 6.0 0.00 0.00 0.00 84 1009.4
20260506031701 77 225 5.0 8.0 0.00 0.00 0.00 84 1009.2
20260506031200 77 170 4.0 6.0 0.00 0.00 0.00 85 1009.2
20260506030701 77 198 4.0 5.0 0.00 0.00 0.00 84 1009.2
20260506030200 77 222 4.0 8.0 0.00 0.00 0.00 84 1009.1
20260506025700 77 217 5.0 8.0 0.00 0.00 0.00 85 1009.1
20260506025200 77 171 6.0 10.0 0.00 0.00 0.00 85 1008.9
20260506024701 77 184 5.0 8.0 0.00 0.00 0.00 85 1009.1
20260506024200 77 169 4.0 8.0 0.00 0.00 0.00 85 1008.9
20260506023701 77 165 4.0 6.0 0.00 0.00 0.00 85 1008.8
20260506023200 77 189 4.0 4.0 0.00 0.00 0.00 85 1008.7
20260506022700 77 172 5.0 8.0 0.00 0.00 0.00 85 1008.6
20260506022200 77 183 3.0 6.0 0.00 0.00 0.00 85 1008.6
20260506021701 77 175 3.0 6.0 0.00 0.00 0.00 85 1008.4
20260506021200 77 173 6.0 11.0 0.00 0.00 0.00 85 1008.4
20260506020700 77 167 8.0 11.0 0.00 0.00 0.00 85 1008.3
20260506020200 77 162 5.0 8.0 0.00 0.00 0.00 85 1008.3
20260506015700 77 184 4.0 5.0 0.00 0.00 0.00 85 1008.3
20260506015200 77 170 2.0 5.0 0.00 0.00 0.00 85 1008.2
20260506014700 77 178 3.0 5.0 0.00 0.00 0.00 85 1008.1
20260506014200 77 171 4.0 6.0 0.00 0.00 0.00 85 1008.0
20260506013701 77 168 4.0 5.0 0.00 0.00 0.00 84 1008.0
20260506013200 77 157 3.0 9.0 0.00 0.00 0.00 84 1007.9
20260506012702 77 173 4.0 7.0 0.00 0.00 0.00 84 1007.7
20260506012200 77 160 6.0 8.0 0.00 0.00 0.00 84 1007.7
20260506011703 78 168 5.0 6.0 0.00 0.00 0.00 83 1007.8
20260506011201 78 167 5.0 8.0 0.00 0.00 0.00 83 1007.6
20260506010701 78 182 4.0 7.0 0.00 0.00 0.00 83 1007.5
20260506010202 78 165 5.0 8.0 0.00 0.00 0.00 83 1007.5
20260506005700 78 213 2.0 5.0 0.00 0.00 0.00 83 1007.4
20260506005200 78 197 4.0 6.0 0.00 0.00 0.00 82 1007.5
20260506004700 78 174 4.0 6.0 0.00 0.00 0.00 82 1007.4
20260506004201 78 180 4.0 9.0 0.00 0.00 0.00 82 1007.3
20260506003700 78 179 2.0 5.0 0.00 0.00 0.00 81 1007.2
20260506003202 79 216 4.0 6.0 0.00 0.00 0.00 81 1007.1
20260506002701 79 197 3.0 5.0 0.00 0.00 0.00 81 1007.2
20260506002200 79 162 6.0 8.0 0.00 0.00 0.00 81 1007.2
20260506001701 79 176 6.0 11.0 0.00 0.00 0.00 80 1007.3
20260506001201 79 162 6.0 8.0 0.00 0.00 0.00 80 1007.3
20260506000700 79 167 5.0 8.0 0.00 0.00 0.00 80 1007.4
20260506000200 80 183 4.0 6.0 0.00 0.00 0.00 80 1007.3
20260505235701 80 170 4.0 6.0 0.00 0.00 0.00 80 1007.3
20260505235201 80 177 3.0 5.0 0.00 0.00 0.00 80 1007.3
20260505234701 80 170 3.0 7.0 0.00 0.00 0.00 79 1007.4
20260505234200 80 175 10.0 13.0 0.00 0.00 0.00 79 1007.4
20260505233700 80 202 2.0 6.0 0.00 0.00 0.00 79 1007.4
20260505233201 80 190 3.0 8.0 0.00 0.00 0.00 79 1007.5
20260505232700 80 179 6.0 12.0 0.00 0.00 0.00 79 1007.4
20260505232200 80 188 3.0 4.0 0.00 0.00 0.00 79 1007.4
20260505231701 81 169 4.0 7.0 0.00 0.00 0.00 78 1007.4
20260505231201 81 164 5.0 8.0 0.00 0.00 0.00 77 1007.5
20260505230700 81 179 3.0 4.0 0.00 0.00 0.00 77 1007.6
20260505230200 80 177 1.0 3.0 0.00 0.00 0.00 77 1007.6
20260505225700 81 218 3.0 5.0 0.00 0.00 0.00 77 1007.7
20260505225200 81 217 3.0 5.0 0.00 0.00 0.00 77 1007.7
20260505224700 81 228 5.0 7.0 0.00 0.00 0.00 76 1007.7
20260505224200 81 185 2.0 5.0 0.00 0.00 0.00 76 1007.7
20260505223701 81 191 4.0 7.0 0.00 0.00 0.00 76 1007.6
20260505223200 81 225 4.0 8.0 0.00 0.00 0.00 75 1007.6
20260505222701 81 211 3.0 4.0 0.00 0.00 0.00 75 1007.5
20260505222201 81 223 3.0 6.0 0.00 0.00 0.00 75 1007.4
20260505221702 81 212 4.0 6.0 0.00 0.00 0.00 76 1007.5
20260505221200 81 208 3.0 6.0 0.00 0.00 0.00 76 1007.4
20260505220700 81 224 6.0 10.0 0.00 0.00 0.00 75 1007.4
20260505220200 81 186 4.0 6.0 0.00 0.00 0.00 75 1007.4
20260505215701 81 178 7.0 10.0 0.00 0.00 0.00 76 1007.3
20260505215200 81 174 8.0 13.0 0.00 0.00 0.00 75 1007.3
20260505214701 82 172 5.0 7.0 0.00 0.00 0.00 75 1007.4
20260505214200 82 170 6.0 11.0 0.00 0.00 0.00 74 1007.4
20260505213700 81 220 8.0 11.0 0.00 0.00 0.00 74 1007.4
20260505213200 81 202 6.0 8.0 0.00 0.00 0.00 74 1007.4
20260505212702 82 194 7.0 15.0 0.00 0.00 0.00 74 1007.6
20260505212200 82 223 5.0 8.0 0.00 0.00 0.00 75 1007.6
20260505211700 82 232 7.0 10.0 0.00 0.00 0.00 75 1007.6
20260505211200 81 218 6.0 8.0 0.00 0.00 0.00 75 1007.6
20260505210701 81 183 6.0 11.0 0.00 0.00 0.00 76 1007.7
20260505210200 82 233 8.0 10.0 0.00 0.00 0.00 74 1007.7
20260505205701 81 205 5.0 9.0 0.00 0.00 0.00 74 1007.7
20260505205201 81 223 6.0 10.0 0.00 0.00 0.00 75 1007.8
20260505204701 81 177 5.0 9.0 0.00 0.00 0.00 76 1008.0
20260505204200 81 231 5.0 10.0 0.00 0.00 0.00 75 1008.0
20260505203701 81 196 6.0 9.0 0.00 0.00 0.00 75 1008.1
20260505203200 81 220 7.0 11.0 0.00 0.00 0.00 75 1008.1
20260505202700 80 226 6.0 10.0 0.00 0.00 0.00 77 1008.1
20260505202200 80 226 6.0 8.0 0.00 0.00 0.00 77 1008.3
20260505201700 80 223 4.0 9.0 0.00 0.00 0.00 78 1008.3
20260505201200 80 206 5.0 12.0 0.00 0.00 0.00 77 1008.3
20260505200700 80 218 8.0 11.0 0.00 0.00 0.00 77 1008.3
20260505200200 80 206 4.0 9.0 0.00 0.00 0.00 78 1008.3
20260505195703 80 201 4.0 9.0 0.00 0.00 0.00 78 1008.3
20260505195200 80 222 5.0 7.0 0.00 0.00 0.00 78 1008.4
20260505194700 79 223 6.0 10.0 0.00 0.00 0.00 79 1008.5
20260505194202 79 209 5.0 8.0 0.00 0.00 0.00 79 1008.6
20260505193700 79 224 6.0 10.0 0.00 0.00 0.00 79 1008.7
20260505193201 79 203 4.0 6.0 0.00 0.00 0.00 80 1008.8
20260505192700 79 175 8.0 12.0 0.00 0.00 0.00 79 1008.8
20260505192201 79 230 9.0 13.0 0.00 0.00 0.00 78 1008.8
20260505191700 79 199 4.0 6.0 0.00 0.00 0.00 79 1008.7
20260505191201 79 193 4.0 6.0 0.00 0.00 0.00 79 1008.8
20260505190701 79 217 7.0 13.0 0.00 0.00 0.00 78 1008.9
20260505190201 79 172 9.0 14.0 0.00 0.00 0.00 79 1008.7
20260505185703 78 207 8.0 13.0 0.00 0.00 0.00 79 1008.9
20260505185200 78 223 7.0 11.0 0.00 0.00 0.00 79 1009.2
20260505184700 78 195 3.0 7.0 0.00 0.00 0.00 81 1009.2
20260505184202 78 216 5.0 8.0 0.00 0.00 0.00 81 1009.2
20260505183700 78 216 3.0 6.0 0.00 0.00 0.00 81 1009.1
20260505183201 77 199 4.0 8.0 0.00 0.00 0.00 81 1009.2
20260505182701 77 236 5.0 7.0 0.00 0.00 0.00 81 1009.2
20260505182201 77 186 5.0 8.0 0.00 0.00 0.00 82 1009.3
20260505181701 77 211 6.0 9.0 0.00 0.00 0.00 82 1009.4
20260505181202 77 217 7.0 9.0 0.00 0.00 0.00 81 1009.3
20260505180701 77 187 6.0 9.0 0.00 0.00 0.00 81 1009.3
20260505180200 77 232 7.0 11.0 0.00 0.00 0.00 81 1009.4
20260505175703 77 214 4.0 8.0 0.00 0.00 0.00 82 1009.3
20260505175200 76 177 2.0 5.0 0.00 0.00 0.00 83 1009.4
20260505174700 76 217 5.0 7.0 0.00 0.00 0.00 82 1009.5
20260505174204 76 211 3.0 4.0 0.00 0.00 0.00 83 1009.5
20260505173700 76 230 4.0 7.0 0.00 0.00 0.00 83 1009.6
20260505173204 76 227 6.0 12.0 0.00 0.00 0.00 83 1009.6
20260505172705 75 216 5.0 12.0 0.00 0.00 0.00 83 1009.7
20260505172200 75 180 6.0 9.0 0.00 0.00 0.00 83 1009.6
20260505171700 75 181 6.0 9.0 0.00 0.00 0.00 83 1009.7
20260505171201 75 230 3.0 6.0 0.00 0.00 0.00 83 1009.6
20260505170701 75 220 2.0 4.0 0.00 0.00 0.00 83 1009.6
20260505170200 75 182 3.0 6.0 0.00 0.00 0.00 83 1009.7
20260505165701 75 193 3.0 5.0 0.00 0.00 0.00 83 1009.6
20260505165203 75 201 5.0 7.0 0.00 0.00 0.00 84 1009.7
20260505164701 74 225 4.0 6.0 0.00 0.00 0.00 84 1009.8
20260505164200 74 213 1.0 4.0 0.00 0.00 0.00 84 1009.8
20260505163701 74 218 4.0 8.0 0.00 0.00 0.00 83 1009.9
20260505163200 74 207 2.0 3.0 0.00 0.00 0.00 84 1010.0
20260505162700 74 204 4.0 9.0 0.00 0.00 0.00 84 1010.0
20260505162203 74 235 4.0 7.0 0.00 0.00 0.00 84 1009.9
20260505161701 74 224 4.0 8.0 0.00 0.00 0.00 84 1009.8
20260505161201 74 206 4.0 6.0 0.00 0.00 0.00 84 1009.6
20260505160701 73 215 4.0 6.0 0.00 0.00 0.00 85 1009.7
20260505160200 73 209 4.0 7.0 0.00 0.00 0.00 84 1009.8